Regional Weather Roundup
Issued by NWS

Home | Current Version | Previous Version | Text Only | Print | Product List | Glossary On
Versions: 1 2 3 4 5 6 7 8 9 10 11 12 13 14 15 16 17 18 19 20 21 22 23 24 25 26 27
000
ASUS42 KFFC 250803
RWRGA
WEATHER ROUNDUP FOR GEORGIA
NATIONAL WEATHER SERVICE PEACHTREE CITY GA
400 AM EDT SAT OCT 25 2014

NOTE: "FAIR" INDICATES FEW OR NO CLOUDS BELOW 12,000 FEET WITH NO
SIGNIFICANT WEATHER AND/OR OBSTRUCTIONS TO VISIBILITY.

* = USE WITH CAUTION. THE STATIONS MARKED WITH AN ASTERISK MAY NOT
REPORT WEATHER SUCH AS PRECIPITATION, FOG, OR THUNDER AND ARE NOT
QUALITY CONTROLLED BY NWS.

THE REMARK "TC" DENOTES TEMPERATURE READING IN DEGREES CELSIUS.

GAZ001>058-250900-
NORTH GEORGIA

CITY           SKY/WX    TMP DP  RH WIND       PRES   REMARKS
ATLANTA        CLEAR     50  43  77 NW8       30.02S
ATHENS         CLEAR     45  44  97 NW3       30.01R
CHAMBLEE       CLEAR     43  41  93 CALM      30.02F
PEACHTREE CITY CLEAR     45  43  93 CALM      30.03F
ROME           CLEAR     43  41  93 CALM      30.06S
WEST ATLANTA   CLEAR     51  43  74 NW5       30.03S
GAINESVILLE    CLEAR     48  42  80 NW5       30.03S
CARTERSVILLE   CLEAR     40  38  93 CALM      30.06S


CITY           SKY/WX    TMP DP  RH WIND       PRES   REMARKS
DALTON*        CLEAR     43  43 100 N3        30.05S
MARIETTA       CLEAR     48  43  85 W5        30.02F
$$

GAZ059>098-102>109-250900-
CENTRAL GEORGIA

CITY           SKY/WX    TMP DP  RH WIND       PRES   REMARKS
AUGUSTA-BUSH   CLEAR     41  40  96 CALM      30.00F
AUGUSTA-DANIEL CLEAR     54  47  77 CALM      30.01S
COLUMBUS       CLEAR     54  44  69 N6        30.02F
MACON          CLEAR     44  44 100 CALM      30.00F
ROBINS AFB     CLEAR     47  45  95 SE2       29.99S


CITY           SKY/WX    TMP DP  RH WIND       PRES   REMARKS
LAGRANGE*        N/A     45  44  99 CALM      30.04S FOG
SYLVANIA*      CLEAR     50  49  97 CALM      30.00S
MILLEDGEVILLE* CLEAR     46  46 100 CALM      30.00F
$$

GAZ099>101-110>166-250900-
SOUTH GEORGIA

CITY           SKY/WX    TMP DP  RH WIND       PRES   REMARKS
SAVANNAH       CLEAR     52  47  83 CALM      29.99F
VALDOSTA       CLEAR     47  42  83 CALM      30.00S
ALMA           FOG       44  43  96 CALM      30.00S VSB 3/4
ST SIMONS      CLEAR     52  50  93 CALM      29.98F
FT STEWART     CLEAR     47  45  92 CALM      29.98F
ALBANY         CLEAR     49  46  90 CALM      30.03F
HUNTER AFB     CLEAR     50  49  95 W2        29.97F
MOODY AFB      CLEAR     47  45  92 NE3       29.99F
BRUNSWICK        N/A     46  46 100 CALM      30.00S VSB 3/4


CITY           SKY/WX    TMP DP  RH WIND       PRES   REMARKS
BAINBRIDGE*    CLEAR     52  48  87 CALM      30.01F
MOULTRIE*      CLEAR     50  50 100 CALM      30.01S
VIDALIA*       CLEAR     48  46  93 CALM      30.00F
WAYCROSS*      CLEAR     50  49  95 CALM      30.00S
DOUGLAS*       CLEAR     50  46  87 CALM      30.01F
$$



USA.gov is the U.S. government's official web portal to all federal, state and local government web resources and services.